User: anonymous   Login
Location: Unspecified
(0.0000°N, 0.0000°E)
Time: 14:53:14
(UTC+00:00)
Language:

deb Explorer IX - Orbit

View from above orbital plane
View from above orbital plane
View from above satellite
View from above satellite

Ground track
Ground track

The orbit data is extracted from the following two-line orbital elements,

1 00085U 61004C   17055.31356203  .00003455  00000-0  76596-3 0  9998
2 00085  38.7757  53.4512 0405203  25.2997 336.7011 14.17411843759264
Epoch (UTC): 24 February 2017 07:31:31
Eccentricity: 0.0405203
inclination: 38.7757°
perigee height: 542 km
apogee height: 1126 km
right ascension of ascending node: 53.4512°
argument of perigee: 25.2997°
revolutions per day: 14.17411843
mean anomaly at epoch: 336.7011°
orbit number at epoch: 75926

The dashed part of the orbit path shows where the satellite is in the earth's shadow,  

DLR